Tracking 18850 objects as of 22-Nov-2017
HD Live streaming from Space Station
objects crossing your sky now

COSMOS 663

Track COSMOS 663 now!
10-day predictions
COSMOS 663 is classified as:


NORAD ID: 7349
Int'l Code: 1974-048A
Perigee: 968.5 km
Apogee: 1,005.2 km
Inclination: 82.9 °
Period: 104.7 minutes
Semi major axis: 7357 km
RCS: 2.064 m2 (large)
Launch date: June 27, 1974
Source: Commonwealth of Independent States (former USSR) (CIS)
Launch site: PLESETSK MISSILE AND SPACE COMPLEX (PKMTR)
aabbcc
Your satellite tracking list
Your tracking list is empty




NASA's NSSDC Master Catalog

Two Line Element Set (TLE):
1 07349U 74048A   17325.56773400  .00000054  00000-0  40524-4 0  9994
2 07349  82.9486 333.0957 0024889 355.9295 119.7988 13.75553366178183
Source of the keplerian elements: AFSPC